Hallock, MN

6:54 AM CST on January 23, 2018 (GMT -0600)
Hallock Municipal

Weather History for KHCO - December, 2011

Change the Weather History Date:

Thursday, December 1, 2011

  Actual Average Record
Temperature  
Mean Temperature 16 °F -  
Max Temperature 26 °F 24 °F 48 °F (1999)
Min Temperature 5 °F 5 °F -26 °F (1946)
Degree Days  
Heating Degree Days 50    
Moisture  
Dew Point 10 °F    
Average Humidity 76    
Maximum Humidity 92    
Minimum Humidity 54    
Precipitation  
Precipitation 0.00 in - - ()
Sea Level Pressure  
Sea Level Pressure 30.44 in    
Wind  
Wind Speed 12 mph (West)    
Max Wind Speed 17 mph    
Max Gust Speed 24 mph    
Visibility 10 miles    
Events      
Averages and records for this station are not official NWS values.
T = Trace of Precipitation, MM = Missing Value Source: NWS Daily Summary

Daily Weather History Graph

Daily Weather History Graph

Search for Another Location

Airport or City:

Trip Planner

Search our weather history database for the weather conditions in past years. The results will help you decide how hot, cold, wet, or windy it might be!

Date:

Astronomy

Dec. 01, 2011 Rise Set
Actual Time 7:59 AM CST 4:34 PM CST
Civil Twilight 7:22 AM CST 5:10 PM CST
Nautical Twilight 6:43 AM CST 5:49 PM CST
Astronomical Twilight 6:05 AM CST 6:27 PM CST
Moon 12:23 PM CST (12/1) 11:57 PM CST (12/1)
Length of Visible Light 9h 47m
Length of Day
8h 34m
Waxing Crescent, 43% of the Moon is Illuminated
Dec 1
Waxing Crescent
Dec 2
First Quarter
Dec 10
Full
Dec 17
Last Quarter
Dec 24
New

Hourly Weather History & Observations

Time (CST) Temp. Windchill Dew Point Humidity Pressure Visibility Wind Dir Wind Speed Gust Speed Precip Events Conditions
12:14 AM 19.4 °F 5.5 °F 12.2 °F 74% 30.38 in 10.0 mi North 15.0 mph - N/A   Clear
12:34 AM 17.6 °F 2.7 °F 12.2 °F 79% 30.38 in 10.0 mi North 16.1 mph - N/A   Clear
12:54 AM 17.6 °F 2.2 °F 12.2 °F 79% 30.39 in 10.0 mi North 17.3 mph - N/A   Clear
1:14 AM 17.6 °F 4.3 °F 10.4 °F 73% 30.39 in 10.0 mi North 12.7 mph 20.7 mph N/A   Clear
1:34 AM 15.8 °F 1.4 °F 12.2 °F 86% 30.40 in 10.0 mi NNW 13.8 mph - N/A   Clear
1:54 AM 15.8 °F 0.9 °F 10.4 °F 79% 30.41 in 10.0 mi North 15.0 mph - N/A   Clear
2:01 AM 15.8 °F 0.9 °F 10.4 °F 79% 30.41 in 10.0 mi North 15.0 mph 24.2 mph N/A   Clear
2:21 AM 15.8 °F 0.3 °F 10.4 °F 79% 30.42 in 10.0 mi NNW 16.1 mph - N/A   Clear
2:41 AM 15.8 °F 1.4 °F 8.6 °F 73% 30.44 in 10.0 mi NNW 13.8 mph - N/A   Clear
3:21 AM 14.0 °F -1.4 °F 8.6 °F 79% 30.46 in 10.0 mi NNW 15.0 mph - N/A   Mostly Cloudy
3:41 AM 14.0 °F -1.4 °F 8.6 °F 79% 30.46 in 10.0 mi NNW 15.0 mph - N/A   Clear
4:14 AM 12.2 °F -4.3 °F 8.6 °F 85% 30.48 in 10.0 mi NNW 16.1 mph - N/A   Clear
4:34 AM 12.2 °F -3.1 °F 8.6 °F 85% 30.48 in 10.0 mi NNW 13.8 mph - N/A   Clear
4:54 AM 10.4 °F -4.1 °F 6.8 °F 85% 30.49 in 10.0 mi NNW 11.5 mph - N/A   Clear
5:15 AM 10.4 °F -4.8 °F 6.8 °F 85% 30.49 in 10.0 mi NNW 12.7 mph - N/A   Clear
5:34 AM 10.4 °F -4.1 °F 6.8 °F 85% 30.50 in 10.0 mi NNW 11.5 mph - N/A   Clear
5:54 AM 8.6 °F -6.3 °F 6.8 °F 92% 30.51 in 10.0 mi NNW 11.5 mph - N/A   Clear
6:14 AM 8.6 °F -4.7 °F 6.8 °F 92% 30.52 in 10.0 mi NNW 9.2 mph - N/A   Clear
6:34 AM 8.6 °F -3.7 °F 6.8 °F 92% 30.52 in 10.0 mi NNW 8.1 mph - N/A   Clear
6:54 AM 8.6 °F -3.7 °F 6.8 °F 92% 30.54 in 10.0 mi NNW 8.1 mph - N/A   Clear
7:14 AM 8.6 °F -4.7 °F 6.8 °F 92% 30.53 in 10.0 mi NNW 9.2 mph - N/A   Clear
7:34 AM 8.6 °F 0.1 °F 5.0 °F 85% 30.54 in 10.0 mi NW 4.6 mph - N/A   Clear
7:54 AM 6.8 °F -2.0 °F 3.2 °F 85% 30.54 in 10.0 mi WNW 4.6 mph - N/A   Clear
8:14 AM 5.0 °F -2.1 °F 3.2 °F 92% 30.54 in 10.0 mi NW 3.5 mph - N/A   Clear
8:34 AM 6.8 °F -3.5 °F 5.0 °F 92% 30.55 in 10.0 mi NW 5.8 mph - N/A   Clear
8:54 AM 8.6 °F -2.6 °F 6.8 °F 92% 30.55 in 10.0 mi NW 6.9 mph - N/A   Clear
9:14 AM 10.4 °F -0.4 °F 8.6 °F 92% 30.55 in 10.0 mi NW 6.9 mph - N/A   Clear
9:34 AM 12.2 °F 1.7 °F 8.6 °F 85% 30.56 in 10.0 mi NW 6.9 mph - N/A   Clear
10:14 AM 15.8 °F 6.1 °F 8.6 °F 73% 30.56 in 10.0 mi WNW 6.9 mph - N/A   Clear
10:34 AM 17.6 °F 10.7 °F 10.4 °F 73% 30.56 in 10.0 mi WNW 4.6 mph - N/A   Clear
10:54 AM 17.6 °F 10.7 °F 10.4 °F 73% 30.56 in 10.0 mi WNW 4.6 mph - N/A   Clear
11:14 AM 19.4 °F 14.3 °F 10.4 °F 68% 30.55 in 10.0 mi West 3.5 mph - N/A   Clear
11:34 AM 21.2 °F 12.6 °F 8.6 °F 58% 30.55 in 10.0 mi West 6.9 mph - N/A   Clear
11:54 AM 21.2 °F 13.6 °F 8.6 °F 58% 30.54 in 10.0 mi WSW 5.8 mph - N/A   Clear
12:14 PM 21.2 °F 13.6 °F 8.6 °F 58% 30.53 in 10.0 mi WSW 5.8 mph - N/A   Scattered Clouds
12:34 PM 21.2 °F 12.6 °F 8.6 °F 58% 30.51 in 10.0 mi SW 6.9 mph - N/A   Overcast
12:54 PM 21.2 °F 12.6 °F 8.6 °F 58% 30.50 in 10.0 mi SW 6.9 mph - N/A   Overcast
1:14 PM 21.2 °F 12.6 °F 8.6 °F 58% 30.49 in 10.0 mi SW 6.9 mph - N/A   Overcast
1:34 PM 23.0 °F 13.9 °F 8.6 °F 54% 30.48 in 10.0 mi SW 8.1 mph - N/A   Overcast
2:14 PM 23.0 °F 11.7 °F 10.4 °F 59% 30.45 in 10.0 mi SW 11.5 mph - N/A   Overcast
2:34 PM 24.8 °F 14.6 °F 12.2 °F 59% 30.43 in 10.0 mi SW 10.4 mph - N/A   Overcast
2:54 PM 24.8 °F 14.0 °F 12.2 °F 59% 30.42 in 10.0 mi SW 11.5 mph - N/A   Overcast
3:14 PM 26.6 °F 14.7 °F 14.0 °F 59% 30.41 in 7.0 mi SSW 15.0 mph - N/A   Overcast
3:34 PM 24.8 °F 12.9 °F 12.2 °F 59% 30.40 in 10.0 mi SSW 13.8 mph - N/A   Mostly Cloudy
4:14 PM 24.8 °F 14.6 °F 14.0 °F 64% 30.40 in 10.0 mi SSW 10.4 mph - N/A   Overcast
4:34 PM 24.8 °F 13.4 °F 14.0 °F 64% 30.38 in 10.0 mi South 12.7 mph - N/A   Overcast
5:14 PM 21.2 °F 8.9 °F 12.2 °F 68% 30.36 in 10.0 mi South 12.7 mph - N/A   Scattered Clouds
5:34 PM 19.4 °F 7.2 °F 12.2 °F 74% 30.35 in 10.0 mi South 11.5 mph - N/A   Scattered Clouds
5:54 PM 19.4 °F 6.6 °F 12.2 °F 74% 30.33 in 10.0 mi South 12.7 mph - N/A   Scattered Clouds
6:14 PM 19.4 °F 7.2 °F 12.2 °F 74% 30.32 in 10.0 mi South 11.5 mph - N/A   Clear
6:34 PM 17.6 °F 5.0 °F 12.2 °F 79% 30.31 in 10.0 mi South 11.5 mph - N/A   Clear
6:54 PM 17.6 °F 5.0 °F 12.2 °F 79% 30.29 in 10.0 mi South 11.5 mph - N/A   Clear
7:14 PM 17.6 °F 3.7 °F 12.2 °F 79% 30.27 in 10.0 mi South 13.8 mph - N/A   Clear
7:34 PM 17.6 °F 3.2 °F 12.2 °F 79% 30.26 in 10.0 mi South 15.0 mph - N/A   Clear
7:54 PM 17.6 °F 3.2 °F 12.2 °F 79% 30.25 in 10.0 mi South 15.0 mph - N/A   Clear
8:14 PM 17.6 °F 3.7 °F 12.2 °F 79% 30.23 in 10.0 mi South 13.8 mph - N/A   Clear
8:34 PM 17.6 °F 3.7 °F 12.2 °F 79% 30.22 in 10.0 mi South 13.8 mph - N/A   Clear
8:54 PM 17.6 °F 5.0 °F 12.2 °F 79% 30.21 in 10.0 mi South 11.5 mph 15.0 mph N/A   Clear
9:14 PM 17.6 °F 5.0 °F 14.0 °F 86% 30.21 in 10.0 mi South 11.5 mph - N/A   Clear
9:53 PM 17.6 °F 3.2 °F 15.8 °F 93% 30.18 in 10.0 mi South 15.0 mph - N/A   Clear
10:14 PM 17.6 °F 3.7 °F 15.8 °F 93% 30.17 in 10.0 mi South 13.8 mph - N/A   Clear
10:34 PM 17.6 °F 2.2 °F 15.8 °F 93% 30.16 in 10.0 mi South 17.3 mph - N/A   Clear
11:14 PM 19.4 °F 5.0 °F 15.8 °F 86% 30.12 in 10.0 mi South 16.1 mph - N/A   Clear
11:53 PM 17.6 °F 2.7 °F 15.8 °F 93% 30.11 in 10.0 mi South 16.1 mph - N/A   Clear